Weather History for Fremont, NE

Change the Weather History Date:

Monday, November 15, 2010

  Actual Average Record
Temperature  
Mean Temperature 43 °F -  
Max Temperature 55 °F 49 °F 75 °F (2001)
Min Temperature 31 °F 29 °F 14 °F (1970)
Degree Days  
Heating Degree Days 22    
Moisture  
Dew Point 33 °F    
Average Humidity 74    
Maximum Humidity 92    
Minimum Humidity 45    
Precipitation  
Precipitation 0.06 in - - ()
Sea Level Pressure  
Sea Level Pressure 29.74 in    
Wind  
Wind Speed 3 mph (West)    
Max Wind Speed 13 mph    
Max Gust Speed 21 mph    
Visibility 10 miles    
Events Rain    
Averages and records for this station are not official NWS values.
T = Trace of Precipitation, MM = Missing Value Source: NWS Daily Summary

Daily Weather History Graph

Daily Weather History Graph

Search for Another Location

Airport:

Trip Planner

Search our weather history database for the weather conditions in past years. The results will help you decide how hot, cold, wet, or windy it might be!

Date:

Astronomy

Nov. 15, 2010 Rise Set
Actual Time 7:14 AM CST 5:06 PM CST
Civil Twilight 6:44 AM CST 5:36 PM CST
Nautical Twilight 6:11 AM CST 6:09 PM CST
Astronomical Twilight 5:38 AM CST 6:42 PM CST
Moon 1:53 PM CST (11/15) 1:17 AM CST (11/15)
Length of Visible Light 10h 51m
Length of Day
9h 51m
Waxing Gibbous, 69% of the Moon is Illuminated
Nov 15
Waxing Gibbous
Nov 21
Full
Nov 28
Last Quarter
Dec 5
New
Dec 13
First Quarter

Hourly Weather History & Observations

Time (CST) Temp. Windchill Dew Point Humidity Pressure Visibility Wind Dir Wind Speed Gust Speed Precip Events Conditions
12:10 AM 36.0 °F 33.3 °F 28.9 °F 76% 29.74 in 10.0 mi South 3.5 mph - N/A   Clear
12:30 AM 35.1 °F - 28.4 °F 77% 29.74 in 10.0 mi Calm Calm - N/A   Clear
12:50 AM 33.8 °F - 28.4 °F 81% 29.74 in 10.0 mi Calm Calm - N/A   Clear
1:10 AM 34.7 °F - 28.8 °F 79% 29.73 in 10.0 mi Calm Calm - N/A   Clear
1:30 AM 34.2 °F - 28.8 °F 81% 29.72 in 10.0 mi Calm Calm - N/A   Clear
1:50 AM 34.0 °F - 28.9 °F 82% 29.72 in 10.0 mi Calm Calm - N/A   Clear
2:10 AM 34.5 °F - 28.6 °F 79% 29.72 in 10.0 mi Calm Calm - N/A   Clear
2:30 AM 33.8 °F 30.8 °F 28.2 °F 80% 29.72 in 10.0 mi SSW 3.5 mph - N/A   Clear
2:50 AM 33.8 °F - 28.9 °F 82% 29.72 in 10.0 mi Calm Calm - N/A   Clear
3:30 AM 33.1 °F - 28.8 °F 84% 29.71 in 10.0 mi Calm Calm - N/A   Clear
3:50 AM 32.2 °F - 28.8 °F 87% 29.71 in 10.0 mi Calm Calm - N/A   Clear
4:10 AM 32.5 °F - 28.6 °F 85% 29.70 in 10.0 mi Calm Calm - N/A   Scattered Clouds
4:30 AM 32.4 °F - 28.9 °F 87% 29.70 in 10.0 mi Calm Calm - N/A   Scattered Clouds
4:50 AM 32.5 °F - 28.6 °F 85% 29.70 in 10.0 mi Calm Calm - N/A   Clear
5:10 AM 32.0 °F 27.5 °F 28.8 °F 88% 29.71 in 10.0 mi SW 4.6 mph - N/A   Mostly Cloudy
5:30 AM 32.2 °F 26.7 °F 28.8 °F 87% 29.72 in 10.0 mi WSW 5.8 mph - N/A   Overcast
5:50 AM 32.0 °F 28.7 °F 28.9 °F 88% 29.72 in 10.0 mi West 3.5 mph - N/A   Mostly Cloudy
6:10 AM 32.0 °F 28.7 °F 28.6 °F 87% 29.71 in 10.0 mi WSW 3.5 mph - N/A   Clear
6:50 AM 32.0 °F 28.7 °F 29.3 °F 90% 29.73 in 10.0 mi West 3.5 mph - N/A   Clear
7:10 AM 31.1 °F 27.7 °F 28.6 °F 90% 29.73 in 10.0 mi WSW 3.5 mph - N/A   Clear
7:30 AM 31.6 °F - 28.8 °F 89% 29.74 in 10.0 mi Calm Calm - N/A   Clear
7:50 AM 31.1 °F 27.7 °F 28.4 °F 90% 29.74 in 10.0 mi WNW 3.5 mph - N/A   Clear
8:10 AM 31.3 °F 26.6 °F 28.9 °F 91% 29.75 in 10.0 mi NW 4.6 mph - N/A   Clear
8:30 AM 32.0 °F - 29.8 °F 92% 29.75 in 10.0 mi Calm Calm - N/A   Clear
8:50 AM 34.0 °F 29.8 °F 30.9 °F 89% 29.76 in 10.0 mi West 4.6 mph - N/A   Clear
9:10 AM 36.0 °F 31.1 °F 32.0 °F 86% 29.75 in 10.0 mi West 5.8 mph - N/A   Clear
9:30 AM 37.6 °F 32.3 °F 33.1 °F 84% 29.75 in 10.0 mi West 6.9 mph - N/A   Clear
9:50 AM 39.2 °F 35.0 °F 34.3 °F 83% 29.75 in 10.0 mi West 5.8 mph - N/A   Clear
10:10 AM 40.6 °F 37.5 °F 34.7 °F 79% 29.76 in 10.0 mi West 4.6 mph - N/A   Clear
10:50 AM 43.2 °F 41.5 °F 35.8 °F 75% 29.77 in 10.0 mi WNW 3.5 mph - N/A   Clear
11:10 AM 44.8 °F - 36.3 °F 72% 29.77 in 10.0 mi Calm Calm - N/A   Clear
11:50 AM 48.9 °F - 36.0 °F 61% 29.76 in 10.0 mi South 3.5 mph - N/A   Clear
12:10 PM 49.6 °F - 36.3 °F 60% 29.76 in 10.0 mi SSW 4.6 mph - N/A   Clear
12:30 PM 51.3 °F - 35.4 °F 55% 29.75 in 10.0 mi SW 3.5 mph - N/A   Clear
12:50 PM 52.2 °F - 36.5 °F 55% 29.75 in 10.0 mi Calm Calm - N/A   Scattered Clouds
1:10 PM 52.7 °F - 36.1 °F 53% 29.74 in 10.0 mi SW 4.6 mph - N/A   Clear
1:50 PM 53.8 °F - 34.5 °F 48% 29.74 in 10.0 mi WSW 6.9 mph - N/A   Clear
2:10 PM 53.8 °F - 34.2 °F 47% 29.74 in 10.0 mi West 8.1 mph - N/A   Scattered Clouds
2:30 PM 54.5 °F - 34.2 °F 46% 29.73 in 10.0 mi West 6.9 mph - N/A   Clear
2:50 PM 54.3 °F - 34.5 °F 47% 29.73 in 10.0 mi WSW 8.1 mph - N/A   Scattered Clouds
3:10 PM 55.6 °F - 34.7 °F 45% 29.73 in 10.0 mi West 6.9 mph - N/A   Overcast
3:30 PM 54.5 °F - 35.1 °F 48% 29.74 in 10.0 mi WSW 6.9 mph - N/A   Mostly Cloudy
3:50 PM 54.5 °F - 34.3 °F 47% 29.74 in 10.0 mi West 8.1 mph - N/A   Mostly Cloudy
4:10 PM 53.1 °F - 33.6 °F 48% 29.74 in 10.0 mi West 4.6 mph - N/A   Mostly Cloudy
4:30 PM 50.7 °F - 34.7 °F 54% 29.74 in 10.0 mi West 3.5 mph - N/A   Scattered Clouds
4:50 PM 48.6 °F - 35.4 °F 60% 29.75 in 10.0 mi West 4.6 mph - N/A   Clear
5:10 PM 46.8 °F - 35.8 °F 66% 29.75 in 10.0 mi Calm Calm - N/A   Scattered Clouds
5:30 PM 47.1 °F - 35.2 °F 63% 29.76 in 10.0 mi NW 4.6 mph - N/A   Scattered Clouds
5:50 PM 45.7 °F - 35.6 °F 68% 29.77 in 10.0 mi Calm Calm - N/A   Scattered Clouds
6:10 PM 44.8 °F - 35.8 °F 71% 29.77 in 10.0 mi Calm Calm - N/A   Scattered Clouds
6:30 PM 44.4 °F - 36.5 °F 74% 29.77 in 10.0 mi Calm Calm - N/A   Mostly Cloudy
6:50 PM 43.5 °F - 37.9 °F 81% 29.77 in 10.0 mi Calm Calm - N/A   Overcast
7:10 PM 44.8 °F 38.7 °F 39.0 °F 80% 29.79 in 7.0 mi WSW 12.7 mph - 0.03 in Rain Rain
7:30 PM 45.9 °F 41.7 °F 37.9 °F 74% 29.79 in 10.0 mi West 8.1 mph 20.7 mph 0.05 in Rain Rain
7:50 PM 45.0 °F 40.6 °F 39.2 °F 80% 29.79 in 10.0 mi West 8.1 mph - 0.06 in Rain Light Rain
8:10 PM 44.6 °F - 40.1 °F 84% 29.78 in 10.0 mi Calm Calm - N/A Rain Light Rain
8:30 PM 44.2 °F - 40.1 °F 85% 29.78 in 10.0 mi Calm Calm - N/A   Overcast
8:50 PM 43.2 °F 41.5 °F 39.6 °F 87% 29.78 in 10.0 mi NNW 3.5 mph - N/A   Overcast
9:10 PM 41.9 °F - 39.0 °F 90% 29.79 in 10.0 mi Calm Calm - N/A   Overcast
9:30 PM 41.2 °F - 39.2 °F 93% 29.79 in 10.0 mi Calm Calm - N/A   Overcast
9:50 PM 41.2 °F 39.2 °F 39.2 °F 93% 29.79 in 10.0 mi West 3.5 mph - N/A   Mostly Cloudy
10:10 PM 38.8 °F 34.6 °F 37.4 °F 95% 29.79 in 10.0 mi West 5.8 mph - N/A   Mostly Cloudy
10:30 PM 39.4 °F 36.1 °F 37.8 °F 94% 29.79 in 10.0 mi West 4.6 mph - N/A   Mostly Cloudy
10:50 PM 37.4 °F 32.8 °F 36.0 °F 95% 29.79 in 10.0 mi West 5.8 mph - N/A   Scattered Clouds
11:10 PM 36.7 °F 32.9 °F 35.4 °F 95% 29.78 in 10.0 mi West 4.6 mph - N/A   Scattered Clouds
11:30 PM 36.3 °F 32.5 °F 35.1 °F 95% 29.78 in 10.0 mi West 4.6 mph - N/A   Scattered Clouds
11:50 PM 37.8 °F 33.3 °F 36.0 °F 93% 29.78 in 10.0 mi West 5.8 mph - N/A   Scattered Clouds